Simultaneous Nadir Overpasses (SNOs) Predictions

Prediction of SNOs between LANDSAT-8 and NOAA-19 Satellite Orbit:

Table of predicted SNOs for the next 14.0 days since TLE Epoch: 6/25/2022
Index Date (LANDSAT-8) Time (LANDSAT-8) Lat,Lon (LANDSAT-8) SZA (LANDSAT-8 ) Date (NOAA-19) Time (NOAA-19) Lat,Lon (NOAA-19) SZA (NOAA-19 ) Distance(km) Time Diff (sec)
1 06/26/2022 14:38:18 -80.79, 175.98 120.83 06/26/2022 14:38:26 -80.81, 175.93 120.82 1.86 8
2 06/28/2022 20:12:01 80.82, -87.10 59.32 06/28/2022 20:11:26 80.80, -87.16 59.29 2.10 35
3 06/28/2022 21:01:29 -80.79, 80.17 120.74 06/28/2022 21:02:21 -80.80, 80.07 120.72 2.49 52
4 07/01/2022 02:35:12 80.81, 177.03 59.43 07/01/2022 02:35:21 80.81, 176.84 59.41 3.37 9
5 07/03/2022 08:08:57 -80.80, -86.56 120.45 07/03/2022 08:08:12 -80.81, -86.56 120.46 1.24 45
6 07/03/2022 08:58:23 80.80, 81.10 59.56 07/03/2022 08:59:15 80.80, 81.16 59.59 1.02 52
7 07/05/2022 14:32:07 -80.82, 177.83 120.23 07/05/2022 14:32:06 -80.80, 177.85 120.23 1.20 1
8 07/07/2022 20:05:50 80.82, -85.52 60.01 07/07/2022 20:05:05 80.81, -85.54 59.98 1.37 45



Historial Predications of SNOs between LANDSAT-8 and NOAA-19
